Regional Weather Roundup
Issued by NWS

Home | Current Version | Previous Version | Text Only | Print | Product List | Glossary Off
Versions: 1 2 3 4 5 6 7 8 9 10 11 12 13 14 15 16 17 18 19 20 21 22 23 24 25 26 27 28 29 30 31 32 33 34 35 36 37 38 39 40 41 42 43 44 45 46 47 48 49 50

000
ASUS43 KDTX 230610
RWRMI
MICHIGAN HOURLY REGIONAL WEATHER ROUNDUP
NATIONAL WEATHER SERVICE DETROIT/PONTIAC MI
ISSUED BY NATIONAL WEATHER SERVICE GRAND RAPIDS MI
200 AM EDT FRI JUN 23 2017

NOTE: "FAIR" INDICATES FEW OR NO CLOUDS BELOW 12,000 FEET WITH NO
SIGNIFICANT WEATHER AND/OR OBSTRUCTION TO VISIBILITY.

MIZ047>049-052>055-059>063-066>070-074>076-081>083-230700-
SOUTHEAST LOWER MICHIGAN

CITY           SKY/WX    TMP DP  RH WIND       PRES   REMARKS
ADRIAN         CLOUDY    73  67  81 SW13      29.76F
6HR MIN TEMP:  73; 6HR MAX TEMP:  79;

ALMA           CLOUDY    73  71  95 S10       29.69F
ANN ARBOR      CLOUDY    71  69  93 S7        29.75F
BAD AXE        HVY RAIN  67  66  98 NW3       29.74R
6HR MIN TEMP:  67; 6HR MAX TEMP:  79;

DETROIT CITY   CLEAR     73  68  84 SW12G21   29.74F
6HR MIN TEMP:  68; 6HR MAX TEMP:  78;

DETROIT        MOCLDY    73  69  87 S15       29.76F
6HR MIN TEMP:  71; 6HR MAX TEMP:  74; 6HR PCP:  0.44;

FLINT          CLOUDY    73  69  87 SW9       29.71F
6HR MIN TEMP:  69; 6HR MAX TEMP:  81;

GROSSE ILE     PTCLDY    74  67  78 SW12G17   29.75F
6HR MIN TEMP:  69; 6HR MAX TEMP:  75; 6HR PCP:  0.01;

HILLSDALE      CLOUDY    72  64  78 S7        29.76F
HOWELL         CLOUDY    72  66  83 S8        29.73F
6HR MIN TEMP:  71; 6HR MAX TEMP:  82; 6HR PCP:  0.37;


CITY           SKY/WX    TMP DP  RH WIND       PRES   REMARKS
JACKSON        MOCLDY    72  67  84 S9        29.74F
6HR MIN TEMP:  72; 6HR MAX TEMP:  75; 6HR PCP:  0.02;

LANSING        PTCLDY    74  68  81 S13       29.71F
6HR MIN TEMP:  73; 6HR MAX TEMP:  81; 6HR PCP:  0.08;

MASON          MOCLDY    72  68  88 S7        29.73F
MONROE         MOCLDY    74  67  78 SW13G18   29.75F
6HR MIN TEMP:  71; 6HR MAX TEMP:  76;

MT. CLEMENS    PTCLDY    74  71  91 SW13      29.72F
6HR MIN TEMP:  71; 6HR MAX TEMP:  78; 6HR PCP:  0.18;

PONTIAC        PTCLDY    72  69  90 S10       29.73F
6HR MIN TEMP:  72; 6HR MAX TEMP:  83; 6HR PCP:  0.08;

PORT HOPE        N/A     71  69  93 VRB6      29.68F
6HR MIN TEMP:  70; 6HR MAX TEMP:  80; 6HR PCP:  0.27;

PORT HURON     MOCLDY    70  66  88 S3        29.73S
TRI CITIES     LGT RAIN  68  66  93 N36G43    29.68F
6HR MIN TEMP:  67; 6HR MAX TEMP:  78; 6HR PCP:  1.16;

YPSILANTI      MOCLDY    74  70  87 S14       29.75F
6HR MIN TEMP:  72; 6HR MAX TEMP:  75;

$$
MIZ043>046-050>051-056>058-064>065-071>073-077>080-230700-
SOUTHWEST LOWER MICHIGAN

CITY           SKY/WX    TMP DP  RH WIND       PRES   REMARKS
BATTLE CREEK   MOCLDY    74  68  81 SW17      29.72F
6HR MIN TEMP:  74; 6HR MAX TEMP:  82; 6HR PCP:  0.01;

BENTON HARBOR  PTCLDY    74  68  81 S10       29.69F
6HR MIN TEMP:  74; 6HR MAX TEMP:  82;

BIG RAPIDS     HVY RAIN  64  62  93 W7        29.68F
6HR MIN TEMP:  64; 6HR MAX TEMP:  77; 6HR PCP:  1.09;

COLDWATER      CLOUDY    73  68  84 SW9       29.75F
6HR MIN TEMP:  72; 6HR MAX TEMP:  78;

HOLLAND        CLOUDY    76  68  76 SW16G26   29.68F
6HR MIN TEMP:  74; 6HR MAX TEMP:  80;

GRAND RAPIDS   MOCLDY    74  71  91 SW8       29.68F
6HR MIN TEMP:  73; 6HR MAX TEMP:  75; 6HR PCP:  0.04;

KALAMAZOO      CLOUDY    74  66  76 S14       29.72F
6HR MIN TEMP:  74; 6HR MAX TEMP:  82; 6HR PCP: TRACE;

MARSHALL       CLOUDY    73  70  90 S9G20     29.73F
6HR MIN TEMP:  73; 6HR MAX TEMP:  77;

MOUNT PLEASANT HVY RAIN  66  64  94 NE5       29.70F
MUSKEGON       CLOUDY    72  67  84 S21G30    29.65F
6HR MIN TEMP:  71; 6HR MAX TEMP:  77; 6HR PCP: TRACE;

STURGIS        CLOUDY    72  68  88 MISG      29.75F
6HR MIN TEMP:  72; 6HR MAX TEMP:  80;

$$
MIZ016>042-230700-
NORTHERN LOWER MICHIGAN

CITY           SKY/WX    TMP DP  RH WIND       PRES   REMARKS
ALPENA         LGT RAIN  67  67 100 S6        29.70R
6HR MIN TEMP:  67; 6HR MAX TEMP:  75; 6HR PCP:  0.02;

BEAVER ISLAND  CLOUDY    63  63 100 W5        29.65S
BELLAIRE       CLOUDY    66  64  94 S5        29.67R
6HR MIN TEMP:  65; 6HR MAX TEMP:  70;

CADILLAC       LGT RAIN  64  63  97 CALM      29.69F
CHARLEVOIX     CLOUDY    64  64 100 CALM      29.68F
GAYLORD        RAIN      65  62  90 S5        29.69F FOG
6HR MIN TEMP:  65; 6HR MAX TEMP:  71; 6HR PCP:  0.07;

HOUGHTON LAKE  LGT RAIN  65  63  93 SE5       29.70F FOG
6HR MIN TEMP:  65; 6HR MAX TEMP:  75; 6HR PCP:  0.18;

MANISTEE       LGT RAIN  64  63  96 NW3       29.66F
OSCODA         RAIN      70  68  92 W8        29.70S
6HR MIN TEMP:  70; 6HR MAX TEMP:  74; 6HR PCP:  0.10;

PELLSTON       CLOUDY    63  61  93 CALM      29.66R
6HR MIN TEMP:  62; 6HR MAX TEMP:  67; 6HR PCP:  0.01;

TRAVERSE CITY  RAIN      67  65  93 VRB3      29.65F FOG
6HR MIN TEMP:  67; 6HR MAX TEMP:  73; 6HR PCP:  0.15;

LUDINGTON      CLOUDY    64  64 100 CALM      29.67S
6HR MIN TEMP:  64; 6HR MAX TEMP:  71; 6HR PCP:  0.30;

$$
MIZ007>008-015-230700-
EASTERN UPPER MICHIGAN

CITY           SKY/WX    TMP DP  RH WIND       PRES   REMARKS
KINROSS        CLOUDY    61  61 100 SW3       29.64F
6HR MIN TEMP:  61; 6HR MAX TEMP:  64;

MACKINAC ISLAN FOG       61  61 100 SW6       29.64F VSB 3/4
6HR MIN TEMP:  60; 6HR MAX TEMP:  63; 6HR PCP:  0.02;

NEWBERRY       FOG       61  60  97 CALM      29.63F VSB 1/2
6HR MIN TEMP:  61; 6HR MAX TEMP:  64;

S. S. MARIE    CLOUDY    63  61  93 W3        29.62F FOG
6HR MIN TEMP:  63; 6HR MAX TEMP:  67; 6HR PCP: TRACE;

$$
MIZ004>006-011>014-085-230700-
CENTRAL UPPER MICHIGAN

CITY           SKY/WX    TMP DP  RH WIND       PRES   REMARKS
MANISTIQUE     CLOUDY    60  57  89 CALM      29.63S FOG
6HR MIN TEMP:  58; 6HR MAX TEMP:  63; 6HR PCP:  0.01;

ESCANABA       CLOUDY    64  63  96 SW3       29.63F
6HR MIN TEMP:  64; 6HR MAX TEMP:  68; 6HR PCP:  0.01;

MENOMINEE      CLOUDY    65  64  97 SW3       29.65F
6HR MIN TEMP:  64; 6HR MAX TEMP:  68; 6HR PCP:  0.01;

SAWYER-GWINN   CLOUDY    57  56  97 SW3       29.66R
6HR MIN TEMP:  57; 6HR MAX TEMP:  66;

$$
MIZ001>003-009>011-084-230700-
WESTERN UPPER MICHIGAN

CITY           SKY/WX    TMP DP  RH WIND       PRES   REMARKS
IRON MOUNTAIN  MOCLDY    60  57  89 CALM      29.66S
6HR MIN TEMP:  59; 6HR MAX TEMP:  67;

HOUGHTON       LGT RAIN  57  52  83 NW16      29.65R
6HR MIN TEMP:  54; 6HR MAX TEMP:  70; 6HR PCP: TRACE;

COPPER HARBOR    N/A     66  48  52 NW14G32   29.61S
6HR MIN TEMP:  65; 6HR MAX TEMP:  73;

IRONWOOD       PTCLDY    59  54  83 CALM      29.69F
6HR MIN TEMP:  59; 6HR MAX TEMP:  72;

$$

ABBREVIATIONS USED IN REMARKS
   TC - TEMPERATURE IN CELSIUS
  WCI - WIND CHILL INDEX
   HX - HEAT INDEX
  VSB - VISIBILITY




USA.gov is the U.S. government's official web portal to all federal, state and local government web resources and services.